QPF
0.00 0.00 0.00 0.00 0.00 0.02 0.04 0.04 0.04 0.01 0.01 0.01 0.02 0.03 0.04 0.03 0.03 0.02 0.02 0.01 0.02 0.02 0.03 0.03 0.02 0.01 0.01 0.01 0.01 0.01 0.01 0.02 0.01 0.01 0.01 0.00 0.00 0.00 0.00 0.00 0.00 0.00 0.00 0.00
0.00 0.00 0.00 0.00 0.01 0.01 0.02 0.03 0.05 0.04 0.02 0.01 0.02 0.04 0.04 0.03 0.02 0.02 0.02 0.01 0.01 0.02 0.02 0.02 0.01 0.01 0.01 0.02 0.02 0.02 0.02 0.02 0.02 0.01 0.00 0.00 0.00 0.00 0.00 0.00 0.00 0.00 0.00 0.00
0.01 0.00 0.00 0.01 0.01 0.01 0.02 0.04 0.06 0.07 0.05 0.02 0.03 0.03 0.03 0.03 0.02 0.02 0.02 0.02 0.03 0.03 0.03 0.02 0.02 0.01 0.01 0.02 0.02 0.02 0.03 0.02 0.01 0.01 0.01 0.00 0.00 0.00 0.00 0.00 0.00 0.00 0.00 0.00
0.02 0.00 0.01 0.01 0.00 0.01 0.02 0.03 0.04 0.06 0.05 0.03 0.03 0.02 0.03 0.03 0.02 0.01 0.02 0.03 0.04 0.04 0.05 0.04 0.04 0.03 0.03 0.03 0.03 0.03 0.03 0.02 0.01 0.01 0.01 0.01 0.00 0.00 0.00 0.00 0.00 0.00 0.00 0.00
0.03 0.01 0.00 0.01 0.02 0.03 0.04 0.04 0.04 0.05 0.03 0.02 0.02 0.03 0.03 0.02 0.02 0.02 0.02 0.02 0.03 0.03 0.03 0.03 0.04 0.04 0.04 0.04 0.04 0.04 0.03 0.02 0.02 0.01 0.01 0.01 0.00 0.00 0.00 0.00 0.00 0.00 0.00 0.00
0.04 0.03 0.01 0.01 0.02 0.03 0.05 0.07 0.03 0.03 0.03 0.02 0.02 0.03 0.03 0.02 0.01 0.02 0.02 0.03 0.04 0.04 0.04 0.05 0.05 0.06 0.06 0.06 0.05 0.04 0.03 0.02 0.02 0.01 0.01 0.00 0.00 0.00 0.00 0.00 0.00 0.00 0.00 0.00
0.04 0.03 0.00 0.00 0.01 0.02 0.06 0.07 0.03 0.02 0.03 0.02 0.01 0.01 0.02 0.02 0.02 0.01 0.02 0.03 0.03 0.04 0.05 0.06 0.07 0.08 0.08 0.06 0.05 0.04 0.03 0.02 0.01 0.01 0.00 0.00 0.00 0.00 0.00 0.00 0.00 0.00 0.00 0.00
0.02 0.02 0.01 0.01 0.02 0.03 0.02 0.02 0.02 0.01 0.01 0.01 0.02 0.02 0.02 0.03 0.03 0.02 0.04 0.04 0.03 0.03 0.04 0.04 0.04 0.05 0.05 0.04 0.03 0.02 0.02 0.01 0.01 0.00 0.00 0.00 0.00 0.00 0.00 0.00 0.00 0.00 0.00 0.00
0.01 0.01 0.01 0.01 0.01 0.01 0.00 0.00 0.01 0.01 0.01 0.01 0.03 0.03 0.03 0.03 0.02 0.01 0.02 0.02 0.02 0.02 0.03 0.03 0.04 0.04 0.04 0.03 0.02 0.01 0.01 0.01 0.00 0.00 0.00 0.00 0.00 0.00 0.00 0.00 0.00 0.00 0.00 0.00
0.00 0.00 0.01 0.01 0.00 0.00 0.00 0.00 0.00 0.00 0.00 0.01 0.02 0.03 0.03 0.03 0.02 0.03 0.03 0.02 0.01 0.01 0.02 0.02 0.02 0.01 0.01 0.01 0.00 0.00 0.00 0.00 0.00 0.00 0.00 0.00 0.00 0.00 0.00 0.00 0.00 0.00 0.00 0.00
0.00 0.00 0.01 0.01 0.00 0.00 0.00 0.00 0.00 0.00 0.00 0.01 0.02 0.02 0.03 0.03 0.04 0.04 0.04 0.03 0.02 0.01 0.01 0.01 0.01 0.00 0.00 0.00 0.00 0.01 0.00 0.00 0.00 0.00 0.00 0.00 0.00 0.00 0.00 0.00 0.00 0.00 0.00 0.00
0.01 0.00 0.00 0.00 0.00 0.00 0.00 0.00 0.00 0.00 0.00 0.00 0.01 0.01 0.01 0.02 0.02 0.03 0.03 0.02 0.02 0.01 0.01 0.01 0.01 0.01 0.01 0.01 0.01 0.00 0.00 0.00 0.00 0.00 0.00 0.00 0.00 0.00 0.00 0.00 0.00 0.00 0.00 0.00
0.01 0.00 0.00 0.00 0.00 0.00 0.00 0.00 0.00 0.00 0.00 0.00 0.00 0.00 0.00 0.00 0.00 0.01 0.01 0.02 0.02 0.01 0.02 0.01 0.01 0.01 0.01 0.00 0.00 0.00 0.00 0.00 0.00 0.00 0.00 0.00 0.00 0.00 0.00 0.00 0.00 0.00 0.00 0.00
0.01 0.00 0.00 0.00 0.00 0.00 0.00 0.00 0.00 0.00 0.00 0.00 0.00 0.00 0.00 0.00 0.00 0.01 0.01 0.01 0.02 0.01 0.02 0.02 0.01 0.01 0.00 0.00 0.00 0.00 0.00 0.00 0.00 0.00 0.00 0.00 0.00 0.00 0.00 0.00 0.00 0.00 0.00 0.00
0.00 0.00 0.00 0.00 0.00 0.00 0.00 0.00 0.00 0.00 0.00 0.00 0.00 0.00 0.00 0.00 0.00 0.00 0.01 0.01 0.01 0.02 0.02 0.02 0.01 0.01 0.00 0.00 0.00 0.00 0.00 0.00 0.00 0.00 0.00 0.00 0.00 0.00 0.00 0.00 0.00 0.00 0.00 0.00
0.00 0.01 0.01 0.00 0.01 0.00 0.00 0.00 0.00 0.00 0.00 0.00 0.00 0.00 0.00 0.00 0.00 0.01 0.01 0.01 0.02 0.02 0.02 0.01 0.01 0.00 0.00 0.00 0.00 0.00 0.00 0.00 0.00 0.00 0.00 0.00 0.00 0.00 0.00 0.00 0.00 0.00 0.00 0.00
0.00 0.01 0.01 0.01 0.00 0.00 0.00 0.00 0.00 0.00 0.00 0.00 0.00 0.00 0.00 0.00 0.01 0.01 0.01 0.01 0.01 0.01 0.01 0.00 0.00 0.00 0.00 0.00 0.00 0.00 0.00 0.00 0.00 0.00 0.00 0.00 0.00 0.00 0.00 0.00 0.00 0.00 0.00 0.00
0.00 0.00 0.01 0.01 0.00 0.00 0.00 0.00 0.00 0.00 0.00 0.00 0.00 0.00 0.00 0.00 0.00 0.00 0.01 0.01 0.00 0.00 0.00 0.00 0.00 0.00 0.00 0.00 0.00 0.00 0.00 0.00 0.00 0.00 0.00 0.00 0.00 0.00 0.00 0.00 0.00 0.00 0.00 0.00
0.01 0.00 0.00 0.01 0.01 0.00 0.00 0.00 0.00 0.00 0.00 0.00 0.00 0.00 0.00 0.00 0.00 0.00 0.00 0.00 0.00 0.00 0.00 0.00 0.00 0.00 0.00 0.00 0.00 0.00 0.00 0.00 0.00 0.00 0.00 0.00 0.00 0.00 0.00 0.00 0.00 0.00 0.00 0.00
0.01 0.01 0.01 0.01 0.01 0.01 0.01 0.01 0.00 0.00 0.00 0.00 0.00 0.00 0.00 0.00 0.00 0.00 0.00 0.00 0.00 0.00 0.00 0.00 0.00 0.00 0.00 0.00 0.00 0.00 0.00 0.00 0.00 0.00 0.00 0.00 0.00 0.00 0.00 0.00 0.00 0.00 0.00 0.00
0.01 0.01 0.01 0.01 0.01 0.01 0.01 0.01 0.01 0.01 0.00 0.00 0.00 0.00 0.00 0.00 0.00 0.00 0.00 0.00 0.00 0.00 0.00 0.00 0.00 0.00 0.00 0.00 0.00 0.00 0.00 0.00 0.00 0.00 0.00 0.00 0.00 0.00 0.00 0.00 0.00 0.00 0.00 0.00
0.01 0.01 0.01 0.01 0.01 0.01 0.01 0.01 0.02 0.01 0.01 0.00 0.00 0.00 0.00 0.00 0.00 0.00 0.00 0.00 0.00 0.00 0.00 0.00 0.00 0.00 0.00 0.00 0.00 0.00 0.00 0.00 0.00 0.00 0.00 0.00 0.00 0.00 0.00 0.00 0.00 0.00 0.00 0.00
0.02 0.02 0.02 0.02 0.02 0.01 0.01 0.02 0.02 0.02 0.01 0.00 0.00 0.00 0.00 0.00 0.00 0.00 0.00 0.00 0.00 0.00 0.00 0.00 0.00 0.00 0.00 0.00 0.00 0.00 0.00 0.00 0.00 0.00 0.00 0.00 0.00 0.00 0.00 0.00 0.00 0.00 0.00 0.00
0.01 0.02 0.02 0.02 0.02 0.02 0.02 0.02 0.02 0.01 0.01 0.01 0.00 0.00 0.00 0.00 0.00 0.00 0.00 0.00 0.00 0.00 0.00 0.00 0.00 0.00 0.00 0.00 0.00 0.00 0.00 0.00 0.00 0.00 0.00 0.00 0.00 0.00 0.00 0.00 0.00 0.00 0.00 0.00
0.01 0.02 0.03 0.03 0.02 0.03 0.03 0.02 0.01 0.01 0.01 0.01 0.00 0.00 0.00 0.00 0.00 0.00 0.00 0.00 0.00 0.00 0.00 0.00 0.00 0.00 0.00 0.00 0.00 0.00 0.00 0.00 0.00 0.00 0.00 0.00 0.00 0.00 0.00 0.00 0.00 0.00 0.00 0.00
0.01 0.01 0.02 0.02 0.03 0.03 0.03 0.02 0.02 0.01 0.01 0.01 0.00 0.00 0.00 0.00 0.00 0.00 0.00 0.00 0.00 0.00 0.00 0.00 0.00 0.00 0.00 0.00 0.00 0.00 0.00 0.00 0.00 0.00 0.00 0.00 0.00 0.00 0.00 0.00 0.00 0.00 0.00 0.00
0.01 0.01 0.01 0.02 0.03 0.04 0.03 0.03 0.02 0.02 0.01 0.01 0.01 0.00 0.00 0.00 0.00 0.00 0.00 0.00 0.00 0.00 0.00 0.00 0.00 0.00 0.00 0.00 0.00 0.00 0.00 0.00 0.00 0.00 0.00 0.00 0.00 0.00 0.00 0.00 0.00 0.00 0.00 0.00
MSLP
1009.50 1009.67 1009.81 1009.86 1009.80 1009.60 1009.26 1008.78 1008.18 1007.51 1006.81 1006.12 1005.49 1004.92 1004.42 1003.97 1003.53 1003.10 1002.67 1002.24 1001.86 1001.57 1001.44 1001.52 1001.87 1002.49 1003.37 1004.49 1005.74 1007.07 1008.37 1009.58 1010.65 1011.58 1012.36 1013.05 1013.68 1014.32 1014.99 1015.72 1016.49 1017.28 1018.04 1018.72
1009.32 1009.35 1009.30 1009.16 1008.91 1008.56 1008.12 1007.61 1007.06 1006.52 1006.00 1005.55 1005.16 1004.84 1004.56 1004.29 1004.01 1003.69 1003.35 1002.99 1002.67 1002.45 1002.38 1002.52 1002.91 1003.57 1004.47 1005.57 1006.79 1008.05 1009.27 1010.40 1011.39 1012.24 1012.97 1013.61 1014.21 1014.82 1015.47 1016.17 1016.91 1017.65 1018.36 1018.99
1009.14 1009.01 1008.78 1008.44 1008.01 1007.52 1006.98 1006.45 1005.95 1005.52 1005.19 1004.96 1004.83 1004.77 1004.74 1004.70 1004.63 1004.49 1004.30 1004.08 1003.87 1003.73 1003.73 1003.92 1004.33 1004.97 1005.83 1006.86 1007.98 1009.13 1010.24 1011.26 1012.15 1012.92 1013.58 1014.18 1014.76 1015.35 1015.98 1016.65 1017.34 1018.04 1018.69 1019.25
1008.88 1008.60 1008.21 1007.71 1007.13 1006.52 1005.91 1005.37 1004.92 1004.61 1004.45 1004.44 1004.56 1004.76 1004.99 1005.21 1005.37 1005.45 1005.46 1005.40 1005.32 1005.29 1005.36 1005.58 1005.98 1006.57 1007.35 1008.26 1009.24 1010.25 1011.21 1012.09 1012.88 1013.57 1014.18 1014.75 1015.30 1015.88 1016.49 1017.13 1017.78 1018.42 1019.00 1019.49
1008.51 1008.10 1007.58 1006.96 1006.28 1005.60 1004.97 1004.45 1004.07 1003.88 1003.87 1004.06 1004.39 1004.83 1005.31 1005.77 1006.16 1006.47 1006.67 1006.78 1006.85 1006.93 1007.06 1007.30 1007.68 1008.20 1008.86 1009.63 1010.46 1011.30 1012.12 1012.87 1013.56 1014.18 1014.74 1015.29 1015.83 1016.40 1016.99 1017.61 1018.21 1018.79 1019.29 1019.70
1007.98 1007.48 1006.88 1006.21 1005.51 1004.82 1004.22 1003.75 1003.46 1003.38 1003.52 1003.86 1004.37 1005.00 1005.67 1006.33 1006.92 1007.41 1007.79 1008.06 1008.27 1008.44 1008.64 1008.89 1009.24 1009.69 1010.24 1010.87 1011.55 1012.25 1012.93 1013.57 1014.18 1014.74 1015.28 1015.81 1016.36 1016.92 1017.50 1018.07 1018.63 1019.14 1019.57 1019.89
1007.28 1006.76 1006.15 1005.50 1004.84 1004.22 1003.69 1003.32 1003.13 1003.16 1003.41 1003.87 1004.50 1005.24 1006.04 1006.82 1007.55 1008.18 1008.69 1009.10 1009.41 1009.68 1009.93 1010.21 1010.54 1010.93 1011.40 1011.92 1012.49 1013.06 1013.64 1014.21 1014.75 1015.28 1015.81 1016.34 1016.88 1017.44 1017.99 1018.53 1019.03 1019.47 1019.81 1020.05
1006.46 1005.96 1005.42 1004.86 1004.31 1003.82 1003.43 1003.18 1003.11 1003.24 1003.57 1004.09 1004.77 1005.55 1006.39 1007.23 1008.02 1008.72 1009.31 1009.81 1010.21 1010.55 1010.86 1011.18 1011.51 1011.89 1012.31 1012.77 1013.26 1013.77 1014.28 1014.80 1015.32 1015.84 1016.36 1016.89 1017.43 1017.97 1018.49 1018.98 1019.42 1019.77 1020.03 1020.17
1005.59 1005.18 1004.76 1004.35 1003.98 1003.66 1003.44 1003.34 1003.38 1003.59 1003.97 1004.50 1005.17 1005.93 1006.74 1007.55 1008.32 1009.03 1009.66 1010.20 1010.67 1011.08 1011.45 1011.81 1012.18 1012.57 1012.99 1013.44 1013.91 1014.39 1014.89 1015.40 1015.91 1016.43 1016.95 1017.48 1018.00 1018.51 1018.99 1019.42 1019.78 1020.04 1020.21 1020.27
1004.77 1004.48 1004.23 1004.02 1003.85 1003.74 1003.70 1003.76 1003.92 1004.19 1004.58 1005.09 1005.70 1006.38 1007.09 1007.82 1008.53 1009.20 1009.82 1010.37 1010.88 1011.34 1011.78 1012.21 1012.63 1013.07 1013.53 1014.00 1014.49 1014.99 1015.50 1016.02 1016.54 1017.06 1017.59 1018.10 1018.60 1019.06 1019.48 1019.83 1020.10 1020.28 1020.36 1020.34
1004.08 1003.95 1003.88 1003.88 1003.93 1004.03 1004.18 1004.39 1004.65 1004.97 1005.37 1005.82 1006.34 1006.91 1007.50 1008.12 1008.73 1009.33 1009.91 1010.46 1010.99 1011.50 1012.00 1012.49 1012.99 1013.50 1014.01 1014.54 1015.07 1015.60 1016.14 1016.68 1017.21 1017.73 1018.24 1018.73 1019.18 1019.59 1019.93 1020.20 1020.39 1020.48 1020.48 1020.40
1003.61 1003.62 1003.74 1003.93 1004.19 1004.49 1004.81 1005.15 1005.50 1005.86 1006.25 1006.65 1007.08 1007.53 1008.01 1008.51 1009.02 1009.55 1010.08 1010.62 1011.16 1011.71 1012.26 1012.82 1013.38 1013.95 1014.53 1015.10 1015.67 1016.24 1016.80 1017.35 1017.88 1018.39 1018.88 1019.32 1019.72 1020.06 1020.33 1020.52 1020.62 1020.64 1020.58 1020.44
1003.38 1003.52 1003.79 1004.15 1004.57 1005.03 1005.49 1005.94 1006.37 1006.77 1007.15 1007.52 1007.88 1008.25 1008.64 1009.05 1009.48 1009.95 1010.44 1010.97 1011.52 1012.09 1012.68 1013.28 1013.89 1014.50 1015.11 1015.71 1016.31 1016.89 1017.46 1018.00 1018.52 1019.00 1019.45 1019.84 1020.18 1020.45 1020.64 1020.76 1020.80 1020.76 1020.65 1020.48
1003.38 1003.61 1003.98 1004.46 1005.00 1005.57 1006.14 1006.67 1007.17 1007.61 1008.01 1008.37 1008.70 1009.03 1009.37 1009.73 1010.13 1010.56 1011.04 1011.56 1012.11 1012.69 1013.30 1013.91 1014.53 1015.15 1015.77 1016.37 1016.96 1017.53 1018.07 1018.59 1019.08 1019.52 1019.92 1020.26 1020.54 1020.75 1020.88 1020.93 1020.92 1020.83 1020.69 1020.50
1003.58 1003.85 1004.27 1004.80 1005.41 1006.04 1006.67 1007.27 1007.82 1008.31 1008.74 1009.12 1009.47 1009.81 1010.16 1010.52 1010.92 1011.36 1011.84 1012.36 1012.92 1013.50 1014.09 1014.69 1015.29 1015.89 1016.47 1017.03 1017.58 1018.11 1018.61 1019.09 1019.53 1019.93 1020.28 1020.57 1020.80 1020.95 1021.03 1021.04 1020.99 1020.88 1020.72 1020.52
1003.91 1004.19 1004.61 1005.14 1005.75 1006.40 1007.06 1007.69 1008.28 1008.81 1009.30 1009.73 1010.14 1010.54 1010.93 1011.35 1011.79 1012.26 1012.76 1013.30 1013.85 1014.42 1014.99 1015.55 1016.11 1016.65 1017.17 1017.67 1018.16 1018.62 1019.07 1019.49 1019.88 1020.24 1020.54 1020.79 1020.97 1021.09 1021.13 1021.12 1021.03 1020.91 1020.74 1020.54
1004.34 1004.58 1004.95 1005.44 1006.01 1006.64 1007.28 1007.92 1008.53 1009.11 1009.66 1010.17 1010.66 1011.13 1011.61 1012.11 1012.61 1013.14 1013.69 1014.24 1014.80 1015.35 1015.89 1016.40 1016.90 1017.37 1017.82 1018.25 1018.66 1019.06 1019.45 1019.82 1020.16 1020.47 1020.74 1020.95 1021.11 1021.20 1021.22 1021.18 1021.08 1020.94 1020.76 1020.56
1004.85 1005.01 1005.31 1005.71 1006.21 1006.78 1007.39 1008.01 1008.63 1009.25 1009.85 1010.43 1011.00 1011.57 1012.15 1012.73 1013.31 1013.91 1014.50 1015.08 1015.64 1016.18 1016.69 1017.16 1017.60 1018.00 1018.38 1018.75 1019.10 1019.44 1019.78 1020.10 1020.40 1020.68 1020.92 1021.10 1021.23 1021.30 1021.31 1021.25 1021.14 1020.98 1020.80 1020.59
1005.41 1005.50 1005.70 1006.00 1006.41 1006.90 1007.45 1008.04 1008.65 1009.28 1009.92 1010.56 1011.20 1011.85 1012.51 1013.17 1013.83 1014.48 1015.12 1015.73 1016.30 1016.83 1017.32 1017.77 1018.16 1018.53 1018.86 1019.18 1019.48 1019.78 1020.08 1020.37 1020.64 1020.89 1021.11 1021.27 1021.38 1021.43 1021.42 1021.35 1021.22 1021.05 1020.85 1020.63
1006.04 1006.04 1006.14 1006.35 1006.67 1007.07 1007.55 1008.10 1008.68 1009.31 1009.96 1010.63 1011.32 1012.03 1012.74 1013.45 1014.16 1014.86 1015.53 1016.17 1016.76 1017.30 1017.78 1018.22 1018.60 1018.95 1019.26 1019.55 1019.83 1020.11 1020.38 1020.64 1020.89 1021.12 1021.31 1021.46 1021.55 1021.58 1021.55 1021.45 1021.31 1021.13 1020.91 1020.68
1006.72 1006.65 1006.67 1006.80 1007.04 1007.37 1007.79 1008.28 1008.83 1009.43 1010.07 1010.75 1011.45 1012.17 1012.90 1013.64 1014.37 1015.09 1015.78 1016.44 1017.05 1017.60 1018.10 1018.54 1018.93 1019.28 1019.60 1019.89 1020.16 1020.43 1020.68 1020.93 1021.16 1021.36 1021.53 1021.65 1021.71 1021.72 1021.66 1021.55 1021.40 1021.20 1020.97 1020.72
1007.44 1007.32 1007.29 1007.36 1007.54 1007.82 1008.19 1008.64 1009.15 1009.72 1010.33 1010.98 1011.66 1012.36 1013.08 1013.81 1014.54 1015.25 1015.95 1016.62 1017.24 1017.81 1018.33 1018.79 1019.20 1019.57 1019.90 1020.20 1020.48 1020.74 1020.98 1021.20 1021.41 1021.58 1021.71 1021.80 1021.84 1021.82 1021.74 1021.61 1021.44 1021.23 1020.99 1020.73
1008.14 1008.00 1007.96 1008.01 1008.17 1008.42 1008.77 1009.18 1009.66 1010.19 1010.76 1011.37 1012.00 1012.66 1013.35 1014.04 1014.74 1015.44 1016.12 1016.78 1017.41 1017.99 1018.53 1019.02 1019.45 1019.84 1020.19 1020.49 1020.77 1021.01 1021.24 1021.43 1021.60 1021.74 1021.83 1021.88 1021.89 1021.84 1021.75 1021.61 1021.43 1021.21 1020.97 1020.71
1008.78 1008.66 1008.63 1008.70 1008.86 1009.12 1009.46 1009.86 1010.32 1010.82 1011.35 1011.91 1012.49 1013.10 1013.73 1014.37 1015.03 1015.69 1016.35 1017.00 1017.62 1018.21 1018.76 1019.26 1019.71 1020.11 1020.46 1020.76 1021.02 1021.25 1021.43 1021.59 1021.72 1021.80 1021.86 1021.87 1021.84 1021.77 1021.66 1021.52 1021.34 1021.13 1020.89 1020.63
1009.31 1009.22 1009.23 1009.34 1009.55 1009.84 1010.19 1010.60 1011.05 1011.52 1012.02 1012.54 1013.08 1013.63 1014.21 1014.80 1015.41 1016.04 1016.67 1017.29 1017.90 1018.49 1019.04 1019.54 1019.99 1020.38 1020.72 1021.00 1021.23 1021.41 1021.56 1021.67 1021.74 1021.78 1021.79 1021.76 1021.71 1021.62 1021.50 1021.35 1021.17 1020.97 1020.73 1020.47
1009.70 1009.66 1009.72 1009.89 1010.14 1010.47 1010.86 1011.28 1011.74 1012.21 1012.69 1013.18 1013.68 1014.19 1014.73 1015.28 1015.85 1016.45 1017.05 1017.66 1018.25 1018.82 1019.36 1019.84 1020.27 1020.65 1020.95 1021.20 1021.38 1021.52 1021.61 1021.66 1021.68 1021.67 1021.64 1021.58 1021.50 1021.40 1021.27 1021.12 1020.94 1020.74 1020.50 1020.23
1009.93 1009.94 1010.05 1010.27 1010.57 1010.94 1011.36 1011.81 1012.28 1012.75 1013.23 1013.70 1014.19 1014.68 1015.20 1015.73 1016.29 1016.86 1017.45 1018.04 1018.62 1019.17 1019.69 1020.15 1020.55 1020.89 1021.15 1021.35 1021.48 1021.56 1021.59 1021.59 1021.56 1021.51 1021.43 1021.35 1021.25 1021.13 1021.00 1020.84 1020.65 1020.44 1020.18 1019.89
Thickness
5535 5541 5543 5543 5543 5542 5538 5536 5533 5549 5556 5567 5569 5569 5570 5567 5560 5552 5544 5537 5532 5528 5526 5525 5527 5529 5531 5534 5537 5539 5541 5542 5545 5547 5548 5548 5545 5541 5537 5531 5525 5519 5512 5505
5531 5540 5543 5545 5549 5549 5548 5548 5547 5550 5558 5566 5569 5569 5566 5562 5555 5546 5536 5529 5524 5521 5518 5518 5517 5517 5519 5521 5525 5528 5531 5534 5538 5540 5539 5538 5535 5530 5525 5519 5512 5507 5501 5494
5527 5542 5546 5546 5560 5559 5556 5557 5554 5553 5561 5567 5566 5566 5562 5559 5552 5542 5532 5524 5519 5516 5513 5511 5510 5510 5511 5514 5518 5521 5524 5528 5531 5532 5531 5528 5524 5519 5513 5507 5501 5495 5490 5484
5521 5531 5532 5557 5570 5566 5560 5561 5562 5561 5562 5563 5565 5564 5559 5555 5550 5540 5530 5522 5517 5512 5509 5507 5506 5506 5506 5509 5512 5515 5519 5522 5524 5524 5522 5518 5513 5507 5502 5496 5491 5485 5479 5474
5516 5525 5541 5561 5564 5560 5556 5559 5564 5562 5563 5565 5566 5564 5557 5550 5545 5538 5529 5522 5516 5511 5508 5505 5504 5504 5504 5505 5508 5511 5514 5517 5517 5516 5513 5508 5502 5496 5491 5486 5480 5475 5469 5463
5515 5519 5531 5558 5561 5561 5555 5556 5563 5562 5562 5563 5564 5562 5555 5546 5539 5533 5526 5520 5514 5510 5507 5503 5502 5503 5503 5503 5505 5508 5510 5510 5509 5506 5503 5498 5492 5486 5481 5476 5470 5464 5458 5452
5512 5517 5537 5560 5561 5558 5552 5557 5562 5563 5562 5560 5559 5554 5548 5542 5535 5528 5522 5517 5513 5509 5505 5503 5502 5501 5501 5502 5503 5503 5504 5503 5500 5496 5492 5487 5482 5476 5471 5465 5460 5454 5448 5442
5515 5517 5531 5560 5558 5556 5558 5563 5563 5562 5560 5558 5554 5550 5545 5537 5530 5524 5519 5515 5511 5508 5505 5503 5502 5502 5500 5499 5498 5498 5496 5493 5489 5485 5482 5477 5472 5466 5461 5455 5449 5443 5437 5430
5529 5537 5554 5561 5561 5563 5563 5562 5561 5558 5557 5556 5551 5546 5540 5534 5528 5523 5520 5515 5512 5509 5507 5504 5501 5500 5498 5495 5493 5491 5488 5483 5479 5475 5471 5467 5462 5456 5450 5444 5438 5431 5424 5417
5539 5548 5556 5560 5563 5562 5560 5557 5554 5553 5552 5552 5548 5542 5536 5531 5526 5521 5518 5514 5512 5510 5507 5503 5499 5495 5493 5490 5488 5485 5480 5474 5470 5466 5461 5456 5451 5445 5439 5432 5425 5418 5412 5404
5538 5547 5553 5557 5556 5556 5553 5551 5548 5547 5547 5547 5543 5537 5532 5527 5522 5517 5515 5512 5510 5507 5503 5498 5494 5490 5487 5484 5481 5477 5471 5466 5461 5457 5451 5445 5439 5433 5427 5420 5414 5406 5399 5392
5540 5549 5551 5551 5550 5550 5547 5544 5542 5540 5539 5539 5537 5532 5526 5520 5515 5512 5509 5507 5503 5500 5495 5491 5487 5483 5480 5477 5474 5470 5463 5456 5451 5446 5440 5434 5428 5421 5417 5411 5404 5397 5390 5383
5545 5546 5546 5544 5543 5542 5539 5536 5535 5533 5531 5530 5528 5524 5519 5514 5510 5507 5504 5500 5495 5491 5487 5483 5480 5475 5472 5469 5466 5461 5455 5448 5442 5436 5430 5424 5417 5411 5404 5399 5394 5388 5381 5373
5542 5542 5543 5542 5536 5532 5529 5527 5525 5523 5522 5521 5518 5515 5511 5507 5503 5499 5495 5491 5487 5483 5479 5476 5472 5467 5464 5460 5456 5450 5444 5439 5432 5425 5419 5413 5406 5400 5394 5387 5380 5374 5369 5362
5535 5535 5535 5530 5525 5521 5519 5517 5515 5513 5511 5510 5509 5506 5503 5499 5494 5490 5487 5483 5480 5476 5471 5467 5463 5458 5455 5451 5446 5440 5434 5427 5421 5414 5408 5402 5396 5390 5384 5377 5370 5362 5355 5347
5522 5523 5522 5521 5517 5514 5513 5512 5509 5506 5505 5503 5500 5497 5494 5490 5486 5482 5479 5476 5473 5468 5463 5459 5454 5449 5446 5441 5436 5429 5423 5419 5412 5404 5398 5392 5386 5380 5373 5366 5358 5350 5342 5334
5515 5515 5513 5512 5511 5511 5510 5509 5507 5503 5500 5496 5492 5489 5486 5482 5478 5474 5470 5467 5463 5458 5454 5450 5444 5440 5436 5431 5425 5418 5412 5407 5403 5395 5388 5382 5376 5369 5362 5355 5347 5338 5329 5322
5514 5517 5517 5515 5513 5511 5509 5507 5503 5498 5494 5490 5486 5483 5479 5476 5471 5466 5461 5457 5452 5447 5442 5438 5435 5431 5426 5421 5415 5409 5403 5397 5391 5385 5379 5373 5366 5359 5352 5344 5335 5326 5318 5309
5511 5514 5516 5516 5513 5510 5506 5501 5497 5493 5488 5485 5481 5477 5473 5468 5463 5458 5454 5449 5444 5437 5430 5429 5426 5421 5415 5411 5406 5399 5394 5388 5382 5376 5370 5365 5357 5350 5342 5334 5325 5316 5308 5300
5504 5507 5509 5508 5507 5504 5499 5495 5491 5487 5483 5480 5475 5470 5464 5458 5455 5451 5446 5440 5434 5430 5425 5420 5415 5410 5405 5401 5396 5390 5384 5379 5373 5367 5361 5354 5347 5340 5333 5325 5317 5307 5298 5290
5495 5498 5498 5498 5497 5494 5491 5488 5485 5481 5476 5472 5468 5463 5457 5451 5446 5442 5437 5429 5422 5420 5417 5412 5406 5401 5396 5392 5387 5380 5375 5369 5364 5357 5352 5345 5338 5331 5323 5315 5306 5298 5289 5280
5485 5487 5488 5487 5485 5483 5481 5479 5477 5473 5469 5464 5459 5454 5449 5443 5437 5432 5427 5422 5416 5413 5408 5402 5397 5393 5388 5383 5377 5371 5366 5361 5355 5349 5342 5335 5328 5321 5313 5305 5295 5287 5279 5271
5475 5477 5477 5476 5475 5473 5471 5469 5466 5463 5460 5456 5452 5447 5443 5437 5432 5427 5417 5412 5409 5405 5399 5394 5390 5385 5380 5373 5368 5363 5357 5352 5346 5340 5334 5327 5320 5312 5304 5295 5286 5278 5270 5264
5464 5464 5464 5464 5463 5461 5458 5456 5453 5451 5448 5445 5442 5439 5435 5429 5421 5417 5413 5407 5403 5397 5391 5386 5382 5377 5371 5364 5359 5354 5349 5343 5338 5331 5325 5318 5311 5303 5294 5286 5277 5270 5263 5258
5450 5451 5452 5452 5451 5449 5446 5444 5442 5439 5437 5433 5429 5427 5424 5421 5416 5409 5404 5399 5394 5388 5382 5377 5373 5367 5361 5356 5351 5346 5341 5336 5330 5324 5317 5310 5302 5293 5285 5277 5269 5262 5257 5254
5439 5440 5441 5441 5441 5438 5436 5435 5433 5430 5427 5423 5418 5415 5413 5410 5405 5400 5394 5389 5384 5379 5372 5367 5362 5357 5352 5348 5343 5339 5334 5328 5322 5315 5309 5301 5293 5285 5277 5269 5262 5257 5254 5252
5428 5428 5428 5428 5428 5428 5427 5426 5424 5422 5419 5416 5410 5405 5402 5399 5394 5389 5384 5378 5373 5367 5362 5357 5353 5348 5344 5340 5336 5331 5326 5321 5315 5308 5301 5293 5286 5278 5270 5263 5258 5254 5252 5251